period_start,C,m1,H,J0,J1,J2,J3,J4,J5,JA,JB,JC,JD,JJ,JK,JN,#
2018-03-11 00:02:47,0.22,5.55,0.00,18.57,22.13,25.42,14.19,48.31,1020.52,2044.00,1790.60,1997.57,2246.24,599.81,607.26,42.65,0000 0000 0000 0000 000000
2018-03-11 00:07:48,0.22,5.56,0.00,18.57,22.13,25.44,14.35,48.27,1020.52,2044.00,1788.27,1996.05,2244.52,600.04,607.53,42.71,0000 0000 0000 0000 000000
2018-03-11 00:12:50,0.24,5.57,0.00,18.58,22.13,25.42,14.15,48.29,1020.52,2044.00,1785.99,1994.55,2242.79,599.80,607.13,42.76,0000 0000 0000 0000 000000
2018-03-11 00:17:51,0.20,5.59,0.00,18.58,22.14,25.37,14.30,48.33,1020.52,2044.00,1783.73,1993.08,2241.15,600.09,607.48,42.81,0000 0000 0000 0000 000000
2018-03-11 00:22:52,0.22,5.60,0.00,18.58,22.14,25.41,14.23,48.27,1020.52,2044.00,1781.42,1991.64,2239.61,599.86,607.27,42.86,0000 0000 0000 0000 000000
2018-03-11 00:27:54,0.20,5.61,0.00,18.59,22.14,25.39,14.20,48.24,1020.52,2044.00,1779.21,1990.27,2238.17,600.19,607.39,42.91,0000 0000 0000 0000 000000
2018-03-11 00:32:55,0.23,5.62,0.00,18.59,22.14,25.41,14.25,48.28,1020.52,2044.00,1776.96,1988.75,2236.50,600.13,607.38,42.96,0000 0000 0000 0000 000000
2018-03-11 00:37:56,0.20,5.63,0.00,18.60,22.15,25.43,14.35,48.27,1020.50,2044.00,1774.81,1987.35,2234.89,600.18,607.65,43.01,0000 0000 0000 0000 000000
2018-03-11 00:42:57,0.22,5.64,0.00,18.61,22.16,25.44,14.28,48.29,1020.51,2044.00,1772.54,1985.85,2233.30,599.90,607.21,43.06,0000 0000 0000 0000 000000
2018-03-11 00:47:59,0.22,5.65,0.00,18.63,22.17,25.45,14.21,48.37,1020.43,2043.99,1770.27,1984.49,2231.65,599.78,607.02,43.11,0000 0000 0000 0000 000000
2018-03-11 00:53:00,0.22,5.66,0.00,18.64,22.17,25.45,14.23,48.25,1020.29,2043.99,1767.99,1983.06,2229.90,599.76,606.81,43.16,0000 0000 0000 0000 000000
2018-03-11 00:58:01,0.23,5.67,0.00,18.66,22.18,25.45,14.22,48.17,1020.15,2043.98,1765.69,1981.65,2228.32,599.81,606.80,43.21,0000 0000 0000 0000 000000
2018-03-11 01:03:03,0.20,5.69,0.00,18.68,22.19,25.39,14.23,48.26,1020.09,2043.98,1763.51,1980.26,2226.70,599.92,606.89,43.26,0000 0000 0000 0000 000000
2018-03-11 01:08:04,0.21,5.70,0.00,18.69,22.19,25.44,14.32,48.19,1020.09,2043.98,1761.45,1978.89,2225.19,600.42,607.21,43.31,0000 0000 0000 0000 000000
2018-03-11 01:13:05,0.20,5.71,0.00,18.71,22.19,25.41,14.26,48.09,1020.07,2043.98,1759.52,1977.61,2223.74,600.21,606.93,43.36,0000 0000 0000 0000 000000
2018-03-11 01:18:06,0.19,5.72,0.00,18.72,22.21,25.42,14.18,48.25,1020.06,2043.98,1757.53,1976.35,2222.28,599.88,606.69,43.41,0000 0000 0000 0000 000000
2018-03-11 01:23:08,0.18,5.73,0.00,18.74,22.22,25.42,14.29,48.10,1020.05,2043.95,1755.59,1975.07,2220.83,600.02,606.79,43.46,0000 0000 0000 0000 000000
2018-03-11 01:28:09,0.19,5.74,0.00,18.75,22.22,25.44,14.25,48.21,1020.05,2043.93,1753.70,1973.81,2219.49,600.28,607.10,43.51,0000 0000 0000 0000 000000
2018-03-11 01:33:10,0.17,5.75,0.00,18.79,22.24,25.44,14.20,48.24,1020.04,2043.75,1751.77,1972.53,2218.07,600.00,606.70,43.56,0000 0000 0000 0000 000000
2018-03-11 01:38:11,0.17,5.75,0.00,18.80,22.24,25.43,14.25,48.30,1020.04,2043.64,1749.87,1971.35,2216.65,599.88,606.53,43.62,0000 0000 0000 0000 000000
2018-03-11 01:43:13,0.13,5.76,0.00,18.83,22.27,25.49,14.26,48.24,1020.04,2043.31,1747.99,1970.03,2215.23,599.98,606.72,43.67,0000 0000 0000 0000 000000
2018-03-11 01:48:14,0.19,5.77,0.00,18.85,22.27,25.46,14.27,48.17,1020.04,2043.09,1746.04,1968.74,2213.75,600.17,606.71,43.72,0000 0000 0000 0000 000000
2018-03-11 01:53:15,0.19,5.78,0.00,18.87,22.29,25.47,14.24,48.19,1020.04,2043.05,1744.09,1967.48,2212.27,600.40,606.90,43.77,0000 0000 0000 0000 000000
2018-03-11 01:58:17,0.22,5.79,0.00,18.89,22.31,25.43,14.19,48.12,1020.04,2043.04,1741.99,1965.99,2210.72,600.05,606.59,43.82,0000 0000 0000 0000 000000
2018-03-11 02:03:18,0.20,5.80,0.00,18.92,22.32,25.47,14.30,48.14,1020.04,2043.04,1739.90,1964.70,2209.26,600.18,606.55,43.87,0000 0000 0000 0000 000000
2018-03-11 02:08:19,0.21,5.81,0.00,18.94,22.34,25.48,14.24,48.20,1020.04,2043.02,1737.87,1963.34,2207.71,599.89,606.17,43.92,0000 0000 0000 0000 000000
2018-03-11 02:13:21,0.20,5.83,0.00,18.96,22.36,25.49,14.21,48.13,1020.04,2043.00,1735.84,1961.93,2206.15,600.04,606.37,43.97,0000 0000 0000 0000 000000
2018-03-11 02:18:22,0.22,5.84,0.00,18.98,22.37,25.49,14.22,48.13,1020.04,2043.00,1733.85,1960.62,2204.65,599.89,606.16,44.02,0000 0000 0000 0000 000000
2018-03-11 02:23:23,0.19,5.85,0.00,19.01,22.39,25.50,14.32,48.25,1020.04,2043.00,1731.81,1959.29,2203.04,600.35,606.57,44.07,0000 0000 0000 0000 000000
2018-03-11 02:28:24,0.22,5.86,0.00,19.02,22.41,25.53,14.22,48.17,1020.04,2042.99,1729.75,1957.85,2201.55,600.04,606.20,44.12,0000 0000 0000 0000 000000
2018-03-11 02:33:25,0.22,5.87,0.00,19.06,22.43,25.54,14.12,48.13,1020.04,2042.97,1727.60,1956.40,2199.82,599.85,605.89,44.17,0000 0000 0000 0000 000000
2018-03-11 02:38:26,0.23,5.88,0.00,19.09,22.44,25.55,14.15,48.13,1020.04,2042.97,1725.44,1954.83,2198.15,599.74,605.74,44.22,0000 0000 0000 0000 000000
2018-03-11 02:43:27,0.22,5.89,0.00,19.12,22.47,25.57,14.19,48.23,1020.04,2042.93,1723.23,1953.39,2196.47,600.01,605.93,44.27,0000 0000 0000 0000 000000
2018-03-11 02:48:28,0.15,5.90,0.00,19.16,22.48,25.58,14.24,48.15,1020.04,2042.67,1721.22,1951.97,2194.87,600.06,605.93,44.32,0000 0000 0000 0000 000000
2018-03-11 02:53:30,0.19,5.91,0.00,19.18,22.49,25.59,14.21,48.15,1020.04,2042.27,1719.25,1950.55,2193.33,599.85,605.60,44.37,0000 0000 0000 0000 000000
2018-03-11 02:58:31,0.21,5.92,0.00,19.22,22.52,25.62,14.09,48.16,1020.04,2042.09,1717.01,1949.06,2191.63,599.91,605.69,44.42,0000 0000 0000 0000 000000
2018-03-11 03:03:32,0.22,5.93,0.00,19.24,22.53,25.64,14.12,48.13,1020.04,2042.03,1714.77,1947.60,2190.04,599.84,605.56,44.48,0000 0000 0000 0000 000000
2018-03-11 03:08:33,0.21,5.94,0.00,19.27,22.55,25.65,14.23,48.15,1020.04,2042.03,1712.71,1946.19,2188.50,600.41,605.92,44.53,0000 0000 0000 0000 000000
2018-03-11 03:13:35,0.24,5.95,0.00,19.31,22.58,25.68,14.17,48.13,1020.04,2042.01,1710.57,1944.73,2186.80,600.16,605.59,44.58,0000 0000 0000 0000 000000
2018-03-11 03:18:36,0.27,5.97,0.00,19.34,22.59,25.70,14.20,48.09,1020.05,2042.00,1708.16,1943.06,2184.93,600.31,605.97,44.63,0000 0000 0000 0000 000000
2018-03-11 03:23:37,0.18,5.98,0.00,19.37,22.62,25.72,14.18,48.13,1020.04,2042.00,1706.20,1941.67,2183.47,600.01,605.46,44.68,0000 0000 0000 0000 000000
2018-03-11 03:28:38,0.09,5.99,0.00,19.40,22.64,25.74,14.26,48.12,1020.04,2042.00,1705.06,1941.00,2182.48,600.19,605.61,44.73,0000 0000 0000 0000 000000
2018-03-11 03:33:40,0.07,5.99,0.00,19.43,22.67,25.77,14.20,48.14,1020.04,2041.99,1704.61,1940.50,2182.01,600.23,605.62,44.78,0000 0000 0000 0000 000000
2018-03-11 03:38:41,0.04,5.99,0.00,19.47,22.69,25.80,14.12,48.13,1020.04,2041.98,1704.01,1940.02,2181.62,600.24,605.58,44.83,0000 0000 0000 0000 000000
2018-03-11 03:43:42,0.02,5.99,0.00,19.50,22.70,25.81,14.25,48.27,1020.04,2041.86,1703.66,1939.90,2181.02,599.89,605.18,44.88,0000 0000 0000 0000 000000
2018-03-11 03:48:43,0.02,6.00,0.00,19.54,22.72,25.85,14.15,48.18,1020.04,2041.47,1703.02,1939.10,2180.73,599.91,605.11,44.93,0000 0000 0000 0000 000000
2018-03-11 03:53:45,0.04,6.00,0.00,19.58,22.74,25.87,14.16,48.08,1020.04,2041.25,1702.55,1938.99,2180.05,600.30,605.38,44.98,0000 0000 0000 0000 000000
2018-03-11 03:58:46,0.04,6.00,0.00,19.62,22.76,25.90,14.23,48.06,1020.04,2041.09,1702.00,1938.42,2179.80,600.04,604.92,45.03,0000 0000 0000 0000 000000
2018-03-11 04:03:48,0.06,6.00,0.00,19.65,22.78,25.92,14.16,48.02,1020.04,2041.03,1701.24,1937.98,2179.04,600.11,605.02,45.08,0000 0000 0000 0000 000000
2018-03-11 04:08:49,0.13,6.01,0.00,19.69,22.79,25.96,14.20,47.94,1020.04,2041.02,1700.19,1937.13,2178.18,600.33,605.15,45.13,0000 0000 0000 0000 000000
2018-03-11 04:13:50,0.13,6.01,0.00,19.72,22.82,25.99,14.20,48.04,1020.04,2041.00,1698.97,1936.35,2177.25,600.14,604.82,45.18,0000 0000 0000 0000 000000
2018-03-11 04:18:52,0.17,6.02,0.00,19.75,22.84,26.00,14.22,47.97,1020.04,2041.00,1697.53,1935.34,2176.06,600.17,604.76,45.23,0000 0000 0000 0000 000000
2018-03-11 04:23:53,0.18,6.03,0.00,19.78,22.86,26.03,14.22,48.04,1020.05,2041.00,1695.84,1934.17,2174.80,600.03,604.76,45.28,0000 0000 0000 0000 000000
2018-03-11 04:28:54,0.21,6.04,0.00,19.81,22.89,26.06,14.23,48.00,1020.06,2041.00,1694.05,1932.82,2173.44,600.15,604.67,45.33,0000 0000 0000 0000 000000
2018-03-11 04:33:56,0.23,6.05,0.00,19.84,22.92,26.07,14.16,47.95,1020.06,2040.98,1692.05,1931.41,2171.76,599.84,604.45,45.38,0000 0000 0000 0000 000000
2018-03-11 04:38:57,0.19,6.06,0.00,19.87,22.95,26.11,14.09,48.02,1020.05,2040.97,1690.21,1930.04,2170.25,599.81,604.24,45.44,0000 0000 0000 0000 000000
2018-03-11 04:43:58,0.08,6.07,0.00,19.89,22.98,26.14,14.10,47.99,1020.04,2040.71,1688.99,1929.07,2169.13,599.82,604.16,45.49,0000 0000 0000 0000 000000
2018-03-11 04:48:59,0.08,6.08,0.00,19.93,23.01,26.17,14.15,48.10,1020.05,2040.42,1688.08,1928.32,2168.28,600.25,604.57,45.54,0000 0000 0000 0000 000000
2018-03-11 04:54:01,0.04,6.08,0.00,19.95,23.05,26.21,14.07,47.93,1020.04,2040.03,1687.29,1927.89,2167.70,600.08,604.35,45.59,0000 0000 0000 0000 000000
2018-03-11 04:59:02,0.10,6.08,0.00,19.99,23.08,26.23,14.19,47.88,1020.04,2040.02,1686.59,1927.10,2166.96,600.21,604.32,45.64,0000 0000 0000 0000 000000
2018-03-11 05:04:03,0.11,6.09,0.00,20.00,23.11,26.25,14.07,47.92,1020.04,2040.00,1685.65,1926.43,2166.12,599.84,604.00,45.69,0000 0000 0000 0000 000000
2018-03-11 05:09:04,0.10,6.09,0.00,20.01,23.14,26.28,14.10,47.88,1020.04,2040.00,1684.66,1925.77,2165.25,599.91,603.96,45.74,0000 0000 0000 0000 000000
2018-03-11 05:14:05,0.10,6.10,0.00,20.02,23.18,26.30,14.07,47.89,1020.04,2040.00,1683.68,1925.00,2164.39,599.87,604.17,45.79,0000 0000 0000 0000 000000
2018-03-11 05:19:07,0.12,6.10,0.00,20.04,23.20,26.33,14.13,47.90,1020.05,2039.98,1682.69,1924.15,2163.62,599.95,604.03,45.84,0000 0000 0000 0000 000000
2018-03-11 05:24:08,0.09,6.11,0.00,20.07,23.23,26.36,14.17,47.92,1020.04,2039.95,1681.80,1923.53,2162.88,600.13,604.18,45.89,0000 0000 0000 0000 000000
2018-03-11 05:29:09,0.04,6.11,0.00,20.09,23.26,26.38,14.03,47.93,1020.05,2039.71,1680.98,1922.95,2162.05,599.59,603.56,45.94,0000 0000 0000 0000 000000
2018-03-11 05:34:11,0.05,6.12,0.00,20.12,23.29,26.41,14.10,47.87,1020.05,2039.17,1680.09,1922.15,2161.24,599.95,603.81,45.99,0000 0000 0000 0000 000000
2018-03-11 05:39:12,0.10,6.12,0.00,20.14,23.33,26.44,14.10,47.87,1020.05,2039.02,1679.26,1921.61,2160.53,599.71,603.56,46.04,0000 0000 0000 0000 000000
2018-03-11 05:44:13,0.08,6.12,0.00,20.17,23.35,26.48,14.13,47.92,1020.04,2039.00,1678.37,1920.95,2159.83,600.06,603.92,46.09,0000 0000 0000 0000 000000
2018-03-11 05:49:15,0.12,6.13,0.00,20.19,23.38,26.49,14.18,47.88,1020.04,2039.00,1677.45,1920.14,2158.97,600.17,604.11,46.14,0000 0000 0000 0000 000000
2018-03-11 05:54:16,0.11,6.13,0.00,20.22,23.41,26.51,14.15,47.89,1020.04,2038.97,1676.44,1919.52,2158.09,599.86,603.56,46.19,0000 0000 0000 0000 000000
2018-03-11 05:59:18,0.10,6.14,0.00,20.24,23.44,26.54,14.11,47.92,1020.04,2038.98,1675.44,1918.88,2157.19,600.14,603.85,46.24,0000 0000 0000 0000 000000
2018-03-11 06:04:19,0.09,6.15,0.00,20.27,23.47,26.57,14.12,47.95,1020.04,2038.82,1674.52,1918.05,2156.36,600.00,603.61,46.30,0000 0000 0000 0000 000000
2018-03-11 06:09:20,0.08,6.15,0.00,20.29,23.50,26.58,14.22,47.88,1020.04,2038.49,1673.51,1917.31,2155.53,600.02,603.59,46.35,0000 0000 0000 0000 000000
2018-03-11 06:14:22,0.07,6.15,0.00,20.30,23.53,26.62,14.06,47.84,1020.04,2038.11,1672.52,1916.60,2154.73,599.84,603.36,46.40,0000 0000 0000 0000 000000
2018-03-11 06:19:23,0.08,6.16,0.00,20.33,23.56,26.64,14.12,48.07,1020.05,2038.03,1671.55,1915.92,2153.90,600.27,603.61,46.45,0000 0000 0000 0000 000000
2018-03-11 06:24:24,0.12,6.16,0.00,20.35,23.58,26.67,14.14,47.97,1020.05,2038.00,1670.51,1915.10,2153.03,600.06,603.57,46.50,0000 0000 0000 0000 000000
2018-03-11 06:29:26,0.13,6.17,0.00,20.37,23.61,26.69,14.10,47.94,1020.07,2038.00,1669.47,1914.25,2152.13,599.94,603.36,46.55,0000 0000 0000 0000 000000
2018-03-11 06:34:27,0.12,6.18,0.00,20.39,23.64,26.71,14.07,48.10,1020.10,2038.00,1668.45,1913.56,2151.20,599.93,603.28,46.60,0000 0000 0000 0000 000000
2018-03-11 06:39:28,0.02,6.18,0.00,20.39,23.66,26.76,14.13,48.03,1020.13,2037.97,1668.00,1913.02,2150.91,599.85,603.34,46.65,0000 0000 0000 0000 000000
2018-03-11 06:44:29,0.05,6.18,0.00,20.43,23.68,26.78,14.05,47.91,1020.18,2037.96,1667.65,1912.96,2150.15,599.85,603.18,46.70,0000 0000 0000 0000 000000
2018-03-11 06:49:31,0.04,6.18,0.00,20.44,23.71,26.80,14.24,47.91,1020.18,2037.85,1667.03,1912.31,2149.99,599.97,603.31,46.75,0000 0000 0000 0000 000000
2018-03-11 06:54:32,0.00,6.18,0.00,20.47,23.72,26.83,14.15,47.87,1020.20,2037.57,1666.81,1912.00,2149.53,599.94,603.28,46.80,0000 0000 0000 0000 000000
2018-03-11 06:59:33,0.01,6.19,0.00,20.49,23.75,26.86,14.12,47.95,1020.31,2037.19,1666.07,1911.97,2149.02,600.06,603.38,46.85,0000 0000 0000 0000 000000
2018-03-11 07:04:34,0.05,6.19,0.00,20.51,23.76,26.88,14.03,47.88,1020.20,2037.05,1665.87,1911.29,2148.80,599.95,603.16,46.90,0000 0000 0000 0000 000000
2018-03-11 07:09:36,0.06,6.19,0.00,20.54,23.77,26.90,14.13,47.92,1020.14,2037.02,1665.08,1910.99,2148.05,600.08,603.26,46.95,0000 0000 0000 0000 000000
2018-03-11 07:14:37,0.03,6.19,0.00,20.55,23.78,26.93,14.17,47.90,1020.09,2037.00,1664.93,1910.68,2147.96,600.42,603.36,47.00,0000 0000 0000 0000 000000
2018-03-11 07:19:38,0.10,6.20,0.00,20.57,23.80,26.97,14.05,47.78,1020.10,2037.00,1664.14,1910.04,2147.19,599.87,602.84,47.05,0000 0000 0000 0000 000000
2018-03-11 07:24:40,0.01,6.20,0.00,20.58,23.81,26.97,14.21,47.68,1020.13,2037.00,1663.92,1909.99,2146.98,600.38,603.40,47.10,0000 0000 0000 0000 000000
2018-03-11 07:29:41,0.11,6.20,0.00,20.60,23.82,26.99,14.19,47.81,1020.17,2037.00,1663.15,1909.47,2146.47,600.30,603.26,47.15,0000 0000 0000 0000 000000
2018-03-11 07:34:42,0.01,6.20,0.00,20.61,23.83,27.02,14.15,47.77,1020.13,2037.00,1663.00,1909.01,2146.01,599.96,602.89,47.21,0000 0000 0000 0000 000000
2018-03-11 07:39:43,0.03,6.20,0.00,20.62,23.85,27.04,14.05,47.75,1020.12,2037.00,1662.67,1908.98,2145.92,599.98,602.90,47.26,0000 0000 0000 0000 000000
2018-03-11 07:44:45,0.09,6.21,0.00,20.63,23.86,27.06,14.13,47.83,1020.19,2037.00,1662.02,1908.41,2145.11,600.19,603.12,47.31,0000 0000 0000 0000 000000
2018-03-11 07:49:46,0.02,6.21,0.00,20.64,23.87,27.08,14.03,47.81,1020.32,2036.99,1661.79,1908.01,2144.99,599.73,602.78,47.36,0000 0000 0000 0000 000000
2018-03-11 07:54:47,0.06,6.21,0.00,20.64,23.87,27.11,14.08,47.80,1020.44,2036.98,1661.05,1907.98,2144.47,599.61,602.72,47.41,0000 0000 0000 0000 000000
2018-03-11 07:59:49,0.04,6.22,0.00,20.64,23.90,27.11,14.07,47.67,1020.46,2036.98,1660.98,1907.47,2144.02,599.80,602.86,47.46,0000 0000 0000 0000 000000
2018-03-11 08:04:50,0.05,6.22,0.00,20.65,23.90,27.14,14.15,47.63,1020.44,2036.94,1660.24,1907.01,2143.92,600.09,603.11,47.51,0000 0000 0000 0000 000000
2018-03-11 08:09:51,0.03,6.22,0.00,20.65,23.92,27.14,14.09,47.69,1020.48,2036.93,1660.00,1906.98,2143.19,600.00,603.09,47.56,0000 0000 0000 0000 000000
2018-03-11 08:14:52,0.05,6.22,0.00,20.64,23.92,27.16,14.08,47.67,1020.51,2036.89,1659.71,1906.54,2142.99,600.15,603.15,47.61,0000 0000 0000 0000 000000
2018-03-11 08:19:54,0.04,6.23,0.00,20.64,23.94,27.17,14.15,47.63,1020.52,2036.74,1659.06,1906.03,2142.65,600.18,603.24,47.66,0000 0000 0000 0000 000000
2018-03-11 08:24:55,0.01,6.23,0.00,20.65,23.95,27.19,14.08,47.68,1020.52,2036.58,1658.90,1905.99,2142.04,599.87,602.92,47.71,0000 0000 0000 0000 000000
2018-03-11 08:29:56,0.07,6.23,0.00,20.64,23.95,27.20,14.12,47.77,1020.52,2036.41,1658.08,1905.32,2141.63,599.77,602.85,47.76,0000 0000 0000 0000 000000
2018-03-11 08:34:58,0.04,6.23,0.00,20.65,23.97,27.21,14.16,47.72,1020.52,2036.13,1657.22,1904.98,2141.01,600.20,603.29,47.81,0000 0000 0000 0000 000000
2018-03-11 08:39:59,0.09,6.24,0.00,20.64,23.97,27.21,14.04,47.68,1020.52,2036.05,1656.73,1904.22,2140.25,599.79,602.99,47.86,0000 0000 0000 0000 000000
2018-03-11 08:45:00,0.03,6.24,0.00,20.64,23.98,27.23,14.13,47.70,1020.52,2036.03,1656.06,1904.00,2140.00,599.91,603.05,47.91,0000 0000 0000 0000 000000
2018-03-11 08:50:02,0.01,6.24,0.00,20.64,24.00,27.25,14.09,47.77,1020.52,2036.06,1655.99,1903.97,2139.95,599.93,603.07,47.96,0000 0000 0000 0000 000000
2018-03-11 08:55:03,0.06,6.24,0.00,20.63,24.00,27.25,14.20,47.81,1020.52,2036.02,1655.73,1903.69,2139.25,600.01,603.18,48.01,0000 0000 0000 0000 000000
2018-03-11 09:00:04,0.06,6.25,0.00,20.62,24.00,27.28,14.17,47.68,1020.52,2036.02,1655.17,1903.16,2139.02,600.36,603.54,48.06,0000 0000 0000 0000 000000
2018-03-11 09:05:05,0.01,6.25,0.00,20.61,24.02,27.29,14.06,47.78,1020.52,2036.02,1655.00,1903.00,2138.96,599.75,602.82,48.12,0000 0000 0000 0000 000000
2018-03-11 09:10:06,0.03,6.25,0.00,20.59,24.02,27.29,14.14,47.77,1020.52,2036.00,1654.89,1902.94,2138.30,599.98,603.17,48.17,0000 0000 0000 0000 000000
2018-03-11 09:15:07,0.09,6.25,0.00,20.59,24.02,27.29,14.15,47.71,1020.52,2036.00,1654.08,1902.19,2138.00,600.07,603.18,48.22,0000 0000 0000 0000 000000
2018-03-11 09:20:09,0.07,6.25,0.00,20.59,24.02,27.29,14.12,47.70,1020.52,2036.00,1653.46,1901.99,2137.49,600.15,603.52,48.27,0000 0000 0000 0000 000000
2018-03-11 09:25:10,0.05,6.26,0.00,20.57,24.03,27.30,14.21,47.73,1020.53,2036.00,1653.00,1901.55,2137.01,600.03,603.28,48.32,0000 0000 0000 0000 000000
2018-03-11 09:30:11,0.08,6.26,0.00,20.55,24.04,27.35,14.10,47.73,1020.54,2036.00,1652.39,1901.02,2136.61,599.84,603.23,48.37,0000 0000 0000 0000 000000
2018-03-11 09:35:13,0.08,6.27,0.00,20.55,24.04,27.33,14.13,47.74,1020.54,2036.00,1651.72,1900.55,2135.99,600.12,603.61,48.42,0000 0000 0000 0000 000000
2018-03-11 09:40:14,0.06,6.27,0.00,20.54,24.05,27.34,14.15,47.72,1020.55,2036.00,1650.99,1900.00,2135.23,600.04,603.48,48.47,0000 0000 0000 0000 000000
2018-03-11 09:45:15,0.10,6.27,0.00,20.52,24.05,27.36,14.13,47.80,1020.54,2036.00,1650.19,1899.49,2134.79,599.94,603.27,48.52,0000 0000 0000 0000 000000
2018-03-11 09:50:16,0.10,6.28,0.00,20.52,24.05,27.36,14.15,47.73,1020.54,2036.00,1649.35,1898.78,2133.92,600.08,603.35,48.57,0000 0000 0000 0000 000000
2018-03-11 09:55:18,0.11,6.29,0.00,20.50,24.05,27.37,14.14,47.83,1020.53,2036.00,1648.35,1898.04,2133.08,600.08,603.69,48.62,0000 0000 0000 0000 000000
2018-03-11 10:00:19,0.00,6.29,0.00,20.49,24.05,27.37,14.12,47.84,1020.54,2036.00,1648.00,1898.00,2133.00,600.00,603.51,48.67,0000 0000 0000 0000 000000
2018-03-11 10:05:21,0.03,6.29,0.00,20.47,24.05,27.35,14.14,47.83,1020.54,2036.00,1647.87,1897.81,2132.86,600.02,603.53,48.72,0000 0000 0000 0000 000000
2018-03-11 10:10:22,0.09,6.29,0.00,20.44,24.04,27.41,14.15,47.92,1020.54,2036.00,1647.10,1897.14,2132.16,600.13,603.67,48.77,0000 0000 0000 0000 000000
2018-03-11 10:15:23,0.01,6.30,0.00,20.44,24.03,27.36,14.12,47.86,1020.53,2036.00,1646.99,1897.01,2132.00,599.91,603.43,48.82,0000 0000 0000 0000 000000
2018-03-11 10:20:25,0.01,6.30,0.00,20.44,24.02,27.36,14.10,47.82,1020.53,2036.00,1646.86,1897.00,2132.00,599.69,603.26,48.87,0000 0000 0000 0000 000000
2018-03-11 10:25:26,0.04,6.30,0.00,20.42,24.02,27.35,14.14,47.73,1020.52,2036.00,1646.16,1896.98,2131.81,600.05,603.61,48.92,0000 0000 0000 0000 000000
2018-03-11 10:30:27,0.06,6.30,0.00,20.41,24.02,27.33,14.09,47.77,1020.52,2036.00,1646.00,1896.58,2131.12,599.91,603.42,48.98,0000 0000 0000 0000 000000
2018-03-11 10:35:29,0.02,6.30,0.00,20.39,24.01,27.35,14.11,47.99,1020.52,2036.00,1645.97,1896.06,2131.01,600.08,603.73,49.03,0000 0000 0000 0000 000000
2018-03-11 10:40:30,0.04,6.30,0.00,20.37,24.00,27.30,14.09,47.99,1020.52,2036.00,1645.33,1896.00,2130.96,599.57,603.26,49.08,0000 0000 0000 0000 000000
2018-03-11 10:45:31,0.03,6.31,0.00,20.37,24.00,27.34,14.16,48.02,1020.52,2036.00,1645.01,1895.99,2130.59,600.18,603.83,49.13,0000 0000 0000 0000 000000
2018-03-11 10:50:32,0.02,6.31,0.00,20.35,23.99,27.30,14.13,47.92,1020.52,2036.01,1644.99,1895.85,2130.06,599.86,603.60,49.18,0000 0000 0000 0000 000000
2018-03-11 10:55:34,0.06,6.31,0.00,20.33,23.97,27.33,14.16,47.97,1020.52,2036.01,1644.48,1895.20,2130.00,599.84,603.57,49.23,0000 0000 0000 0000 000000
2018-03-11 11:00:35,0.02,6.31,0.00,20.32,23.97,27.29,14.15,47.98,1020.52,2036.01,1644.03,1895.01,2129.94,599.86,603.66,49.28,0000 0000 0000 0000 000000
2018-03-11 11:05:37,0.02,6.31,0.00,20.30,23.96,27.24,14.26,47.98,1020.52,2036.03,1643.99,1895.00,2129.36,600.26,603.98,49.33,0000 0000 0000 0000 000000
2018-03-11 11:10:38,0.05,6.31,0.00,20.28,23.95,27.24,14.18,47.99,1020.52,2036.03,1643.57,1894.93,2129.01,600.02,603.87,49.38,0000 0000 0000 0000 000000
2018-03-11 11:15:39,0.05,6.32,0.00,20.27,23.94,27.26,14.18,48.09,1020.52,2036.05,1643.04,1894.39,2129.00,600.30,604.20,49.43,0000 0000 0000 0000 000000
2018-03-11 11:20:41,0.01,6.32,0.00,20.25,23.92,27.22,14.26,48.01,1020.51,2036.03,1642.98,1894.03,2128.81,600.25,604.18,49.48,0000 0000 0000 0000 000000
2018-03-11 11:25:42,0.05,6.32,0.00,20.24,23.92,27.18,14.25,47.95,1020.51,2036.07,1642.58,1894.00,2128.11,600.42,604.44,49.53,0000 0000 0000 0000 000000
2018-03-11 11:30:43,0.03,6.32,0.00,20.22,23.91,27.18,14.15,47.98,1020.50,2036.14,1642.04,1893.97,2128.00,600.01,604.08,49.58,0000 0000 0000 0000 000000
2018-03-11 11:35:45,0.06,6.33,0.00,20.19,23.90,27.16,14.06,48.01,1020.48,2036.25,1641.99,1893.56,2127.95,599.66,603.75,49.63,0000 0000 0000 0000 000000
2018-03-11 11:40:46,0.08,6.33,0.00,20.18,23.88,27.14,14.16,47.98,1020.49,2036.31,1641.37,1893.04,2127.31,599.98,604.04,49.68,0000 0000 0000 0000 000000
2018-03-11 11:45:47,0.03,6.33,0.00,20.17,23.87,27.13,14.20,47.97,1020.51,2036.34,1641.01,1893.00,2127.01,600.10,604.11,49.73,0000 0000 0000 0000 000000
2018-03-11 11:50:48,0.05,6.33,0.00,20.14,23.86,27.16,14.16,48.05,1020.49,2036.58,1640.77,1892.85,2126.95,600.28,604.29,49.78,0000 0000 0000 0000 000000
2018-03-11 11:55:50,0.12,6.34,0.00,20.13,23.85,27.11,14.11,48.09,1020.48,2036.79,1640.06,1892.14,2126.23,599.83,603.92,49.83,0000 0000 0000 0000 000000
2018-03-11 12:00:51,0.06,6.34,0.00,20.11,23.82,27.08,14.18,48.05,1020.31,2036.94,1639.59,1891.99,2125.99,600.21,604.38,49.89,0000 0000 0000 0000 000000
2018-03-11 12:05:52,0.07,6.35,0.00,20.09,23.81,27.12,14.12,47.98,1020.36,2036.97,1638.98,1891.61,2125.46,599.81,603.92,49.94,0000 0000 0000 0000 000000
2018-03-11 12:10:53,0.07,6.35,0.00,20.07,23.80,27.11,14.17,47.97,1020.45,2036.98,1638.26,1891.02,2125.01,600.02,604.41,49.99,0000 0000 0000 0000 000000
2018-03-11 12:15:55,0.02,6.35,0.00,20.06,23.78,27.09,14.25,48.05,1020.38,2036.98,1637.98,1890.97,2124.54,600.19,604.36,50.04,0000 0000 0000 0000 000000
2018-03-11 12:20:56,0.10,6.36,0.00,20.04,23.77,27.02,14.22,48.13,1020.46,2036.99,1637.26,1890.28,2124.01,600.27,604.55,50.09,0000 0000 0000 0000 000000
2018-03-11 12:25:58,0.05,6.36,0.00,20.01,23.75,27.03,14.10,48.08,1020.41,2036.99,1636.70,1890.00,2123.69,599.86,604.25,50.14,0000 0000 0000 0000 000000
2018-03-11 12:30:59,0.08,6.36,0.00,19.99,23.75,27.00,14.26,48.15,1020.27,2036.99,1635.99,1889.54,2123.03,600.33,604.63,50.19,0000 0000 0000 0000 000000
2018-03-11 12:36:00,0.09,6.37,0.00,19.97,23.72,27.02,14.17,48.08,1020.22,2036.99,1635.19,1889.01,2122.48,599.77,604.14,50.24,0000 0000 0000 0000 000000
2018-03-11 12:41:02,0.08,6.37,0.00,19.94,23.72,26.97,14.24,48.15,1020.29,2036.99,1634.57,1888.60,2121.99,600.29,604.67,50.29,0000 0000 0000 0000 000000
2018-03-11 12:46:03,0.06,6.38,0.00,19.92,23.70,26.90,14.16,48.18,1020.35,2037.00,1633.89,1888.02,2121.26,599.87,604.29,50.34,0000 0000 0000 0000 000000
2018-03-11 12:51:04,0.08,6.38,0.00,19.91,23.68,26.94,14.23,48.23,1020.45,2037.00,1633.04,1887.66,2120.87,600.28,604.85,50.39,0000 0000 0000 0000 000000
2018-03-11 12:56:05,0.09,6.39,0.00,19.88,23.67,26.92,14.18,48.16,1020.34,2037.00,1632.23,1887.02,2120.09,600.13,604.78,50.44,0000 0000 0000 0000 000000